QPF
0.04 0.04 0.04 0.04 0.03 0.03 0.03 0.03 0.02 0.01 0.01 0.00 0.00 0.00 0.00 0.01 0.01 0.01 0.01 0.01 0.02 0.03 0.04 0.03 0.02 0.02 0.02 0.02 0.02 0.03 0.03 0.03 0.02 0.02 0.01 0.01 0.01 0.02
0.04 0.03 0.03 0.04 0.05 0.05 0.04 0.04 0.03 0.02 0.01 0.01 0.00 0.00 0.00 0.01 0.01 0.01 0.01 0.01 0.01 0.02 0.03 0.02 0.02 0.02 0.01 0.02 0.02 0.02 0.03 0.03 0.03 0.03 0.02 0.02 0.02 0.02
0.05 0.03 0.03 0.03 0.04 0.05 0.05 0.05 0.04 0.03 0.02 0.01 0.01 0.01 0.01 0.01 0.01 0.01 0.01 0.01 0.01 0.01 0.02 0.02 0.02 0.01 0.01 0.01 0.01 0.02 0.02 0.03 0.03 0.03 0.03 0.03 0.02 0.02
0.03 0.04 0.03 0.03 0.03 0.03 0.04 0.04 0.04 0.03 0.02 0.02 0.02 0.01 0.01 0.01 0.01 0.01 0.01 0.01 0.01 0.01 0.01 0.01 0.01 0.01 0.01 0.01 0.01 0.01 0.01 0.02 0.02 0.02 0.02 0.02 0.02 0.02
0.02 0.02 0.03 0.03 0.03 0.03 0.03 0.03 0.03 0.03 0.03 0.02 0.02 0.02 0.02 0.02 0.02 0.02 0.02 0.02 0.02 0.02 0.01 0.01 0.01 0.01 0.01 0.01 0.01 0.01 0.01 0.01 0.01 0.02 0.02 0.02 0.03 0.03
0.03 0.02 0.02 0.02 0.02 0.02 0.03 0.03 0.03 0.03 0.03 0.02 0.02 0.02 0.03 0.03 0.02 0.02 0.03 0.02 0.02 0.02 0.02 0.02 0.01 0.01 0.01 0.01 0.01 0.01 0.01 0.01 0.01 0.01 0.02 0.02 0.02 0.02
0.03 0.03 0.03 0.03 0.03 0.03 0.03 0.03 0.03 0.04 0.03 0.03 0.03 0.03 0.03 0.04 0.03 0.02 0.02 0.02 0.02 0.03 0.03 0.02 0.02 0.01 0.01 0.01 0.01 0.01 0.02 0.02 0.02 0.02 0.02 0.02 0.03 0.03
0.03 0.03 0.03 0.04 0.03 0.04 0.04 0.03 0.03 0.04 0.04 0.04 0.03 0.02 0.02 0.02 0.02 0.02 0.01 0.02 0.02 0.03 0.02 0.02 0.01 0.01 0.01 0.01 0.01 0.01 0.02 0.04 0.04 0.04 0.04 0.03 0.03 0.04
0.03 0.03 0.03 0.03 0.03 0.03 0.03 0.03 0.03 0.04 0.04 0.04 0.03 0.02 0.02 0.01 0.01 0.02 0.01 0.01 0.01 0.02 0.02 0.02 0.02 0.01 0.01 0.01 0.01 0.01 0.02 0.04 0.04 0.05 0.05 0.05 0.05 0.05
0.03 0.03 0.03 0.03 0.03 0.03 0.03 0.03 0.03 0.03 0.03 0.03 0.02 0.02 0.02 0.02 0.02 0.02 0.02 0.02 0.02 0.02 0.02 0.02 0.02 0.02 0.01 0.01 0.01 0.02 0.02 0.04 0.05 0.05 0.05 0.05 0.05 0.05
0.02 0.02 0.03 0.03 0.03 0.03 0.03 0.03 0.03 0.03 0.03 0.03 0.03 0.03 0.03 0.03 0.04 0.04 0.04 0.04 0.04 0.03 0.02 0.02 0.02 0.02 0.01 0.01 0.01 0.02 0.02 0.04 0.06 0.07 0.07 0.06 0.05 0.04
0.02 0.02 0.03 0.03 0.03 0.03 0.03 0.04 0.04 0.03 0.02 0.03 0.03 0.04 0.04 0.04 0.05 0.05 0.05 0.04 0.04 0.03 0.02 0.02 0.01 0.02 0.02 0.01 0.01 0.02 0.02 0.03 0.04 0.06 0.08 0.08 0.07 0.05
0.03 0.03 0.02 0.02 0.03 0.03 0.03 0.04 0.03 0.03 0.03 0.03 0.03 0.03 0.03 0.04 0.04 0.04 0.04 0.04 0.03 0.03 0.02 0.02 0.02 0.02 0.02 0.02 0.01 0.02 0.02 0.03 0.03 0.04 0.06 0.07 0.08 0.07
0.04 0.03 0.02 0.03 0.03 0.03 0.03 0.03 0.04 0.04 0.04 0.04 0.03 0.03 0.03 0.03 0.03 0.04 0.04 0.03 0.03 0.03 0.02 0.02 0.02 0.02 0.02 0.02 0.02 0.02 0.02 0.03 0.03 0.03 0.04 0.05 0.06 0.06
0.03 0.03 0.03 0.03 0.03 0.03 0.03 0.04 0.04 0.04 0.03 0.04 0.03 0.03 0.02 0.02 0.02 0.02 0.03 0.03 0.03 0.03 0.03 0.03 0.03 0.02 0.03 0.02 0.02 0.02 0.02 0.02 0.03 0.03 0.03 0.04 0.04 0.04
0.02 0.03 0.03 0.03 0.03 0.03 0.04 0.04 0.03 0.03 0.04 0.03 0.03 0.02 0.02 0.02 0.02 0.02 0.02 0.02 0.03 0.03 0.03 0.02 0.03 0.03 0.03 0.02 0.02 0.02 0.02 0.02 0.02 0.02 0.02 0.03 0.03 0.04
0.03 0.03 0.03 0.04 0.04 0.05 0.04 0.03 0.03 0.03 0.03 0.03 0.03 0.03 0.03 0.02 0.02 0.02 0.02 0.02 0.03 0.03 0.03 0.03 0.03 0.03 0.03 0.03 0.02 0.02 0.02 0.02 0.02 0.02 0.02 0.02 0.03 0.03
0.04 0.04 0.03 0.03 0.05 0.04 0.03 0.03 0.03 0.02 0.02 0.03 0.03 0.04 0.03 0.03 0.02 0.02 0.02 0.02 0.02 0.02 0.02 0.02 0.02 0.03 0.03 0.02 0.02 0.01 0.01 0.01 0.01 0.01 0.01 0.02 0.02 0.02
0.04 0.03 0.03 0.03 0.04 0.04 0.03 0.03 0.03 0.02 0.02 0.02 0.03 0.04 0.04 0.04 0.03 0.03 0.03 0.03 0.03 0.02 0.02 0.02 0.02 0.02 0.02 0.02 0.01 0.01 0.01 0.01 0.01 0.01 0.01 0.01 0.01 0.01
0.03 0.03 0.03 0.02 0.03 0.03 0.03 0.03 0.02 0.02 0.02 0.03 0.03 0.03 0.04 0.04 0.04 0.04 0.03 0.03 0.02 0.02 0.02 0.02 0.02 0.02 0.02 0.02 0.01 0.01 0.00 0.01 0.01 0.01 0.01 0.01 0.01 0.01
0.03 0.03 0.03 0.02 0.02 0.03 0.03 0.03 0.03 0.02 0.02 0.02 0.03 0.03 0.03 0.04 0.04 0.04 0.04 0.04 0.03 0.02 0.02 0.02 0.01 0.01 0.02 0.02 0.02 0.01 0.00 0.00 0.01 0.01 0.01 0.01 0.01 0.01
0.03 0.03 0.03 0.03 0.02 0.02 0.02 0.03 0.02 0.02 0.02 0.02 0.02 0.03 0.03 0.04 0.04 0.03 0.03 0.03 0.03 0.03 0.02 0.01 0.01 0.02 0.02 0.03 0.02 0.01 0.00 0.00 0.00 0.01 0.01 0.01 0.02 0.02
0.03 0.03 0.03 0.03 0.03 0.02 0.02 0.02 0.03 0.02 0.02 0.02 0.02 0.03 0.03 0.03 0.03 0.03 0.03 0.03 0.03 0.03 0.02 0.02 0.02 0.02 0.02 0.02 0.02 0.01 0.01 0.01 0.01 0.01 0.01 0.01 0.01 0.01
MSLP
1020.38 1020.90 1021.36 1021.75 1022.11 1022.44 1022.77 1023.10 1023.42 1023.71 1023.97 1024.19 1024.35 1024.48 1024.58 1024.68 1024.80 1024.95 1025.14 1025.36 1025.60 1025.83 1026.04 1026.21 1026.35 1026.46 1026.55 1026.65 1026.77 1026.93 1027.14 1027.37 1027.62 1027.86 1028.08 1028.24 1028.35 1028.40
1019.63 1020.15 1020.59 1020.96 1021.30 1021.63 1021.96 1022.30 1022.64 1022.96 1023.26 1023.52 1023.73 1023.89 1024.02 1024.15 1024.29 1024.46 1024.67 1024.91 1025.17 1025.43 1025.66 1025.85 1026.00 1026.11 1026.19 1026.27 1026.36 1026.49 1026.67 1026.88 1027.12 1027.37 1027.59 1027.78 1027.91 1027.98
1018.84 1019.33 1019.76 1020.12 1020.46 1020.78 1021.13 1021.49 1021.86 1022.24 1022.58 1022.89 1023.14 1023.34 1023.51 1023.65 1023.81 1023.99 1024.21 1024.45 1024.72 1024.99 1025.23 1025.43 1025.58 1025.68 1025.75 1025.80 1025.87 1025.98 1026.13 1026.34 1026.57 1026.83 1027.07 1027.28 1027.43 1027.51
1018.03 1018.48 1018.88 1019.23 1019.56 1019.91 1020.27 1020.67 1021.09 1021.52 1021.91 1022.27 1022.56 1022.80 1022.99 1023.15 1023.31 1023.50 1023.71 1023.96 1024.23 1024.50 1024.74 1024.94 1025.08 1025.17 1025.23 1025.27 1025.32 1025.41 1025.55 1025.75 1025.99 1026.26 1026.52 1026.75 1026.91 1027.01
1017.24 1017.64 1017.99 1018.32 1018.65 1019.01 1019.41 1019.85 1020.31 1020.78 1021.23 1021.63 1021.96 1022.22 1022.43 1022.61 1022.78 1022.96 1023.18 1023.42 1023.69 1023.96 1024.20 1024.40 1024.54 1024.62 1024.67 1024.69 1024.73 1024.81 1024.95 1025.14 1025.39 1025.67 1025.94 1026.19 1026.37 1026.48
1016.57 1016.88 1017.18 1017.47 1017.78 1018.14 1018.56 1019.02 1019.52 1020.03 1020.51 1020.94 1021.30 1021.58 1021.81 1022.00 1022.18 1022.37 1022.59 1022.85 1023.12 1023.40 1023.65 1023.85 1024.00 1024.08 1024.12 1024.14 1024.16 1024.23 1024.35 1024.54 1024.79 1025.06 1025.34 1025.60 1025.79 1025.91
1016.11 1016.32 1016.54 1016.77 1017.04 1017.38 1017.79 1018.25 1018.76 1019.27 1019.76 1020.20 1020.57 1020.87 1021.11 1021.31 1021.51 1021.72 1021.97 1022.25 1022.55 1022.85 1023.12 1023.34 1023.50 1023.59 1023.63 1023.64 1023.65 1023.70 1023.80 1023.97 1024.20 1024.46 1024.73 1024.98 1025.17 1025.29
1015.96 1016.04 1016.15 1016.30 1016.51 1016.79 1017.16 1017.59 1018.07 1018.56 1019.03 1019.46 1019.82 1020.12 1020.36 1020.58 1020.80 1021.05 1021.33 1021.65 1021.99 1022.33 1022.64 1022.89 1023.07 1023.17 1023.21 1023.21 1023.21 1023.24 1023.31 1023.44 1023.64 1023.87 1024.11 1024.33 1024.51 1024.62
1016.13 1016.09 1016.08 1016.13 1016.25 1016.45 1016.74 1017.11 1017.52 1017.96 1018.38 1018.76 1019.10 1019.38 1019.62 1019.86 1020.10 1020.38 1020.71 1021.08 1021.47 1021.86 1022.21 1022.50 1022.70 1022.82 1022.86 1022.86 1022.83 1022.83 1022.86 1022.95 1023.10 1023.28 1023.48 1023.67 1023.82 1023.91
1016.63 1016.47 1016.35 1016.28 1016.30 1016.40 1016.60 1016.87 1017.19 1017.54 1017.88 1018.20 1018.48 1018.73 1018.96 1019.20 1019.46 1019.77 1020.14 1020.55 1020.99 1021.42 1021.81 1022.13 1022.35 1022.49 1022.53 1022.52 1022.48 1022.44 1022.43 1022.48 1022.57 1022.70 1022.86 1023.00 1023.12 1023.20
1017.37 1017.10 1016.88 1016.72 1016.64 1016.64 1016.73 1016.90 1017.12 1017.36 1017.61 1017.84 1018.05 1018.25 1018.45 1018.67 1018.93 1019.25 1019.63 1020.07 1020.53 1020.98 1021.39 1021.73 1021.97 1022.11 1022.16 1022.14 1022.08 1022.02 1021.99 1021.99 1022.04 1022.14 1022.25 1022.36 1022.45 1022.52
1018.22 1017.89 1017.60 1017.37 1017.21 1017.13 1017.12 1017.19 1017.30 1017.44 1017.58 1017.73 1017.86 1017.99 1018.13 1018.31 1018.54 1018.84 1019.21 1019.63 1020.08 1020.52 1020.92 1021.25 1021.49 1021.63 1021.68 1021.66 1021.60 1021.53 1021.49 1021.48 1021.51 1021.58 1021.67 1021.76 1021.84 1021.89
1019.08 1018.73 1018.40 1018.13 1017.92 1017.78 1017.71 1017.69 1017.71 1017.75 1017.80 1017.85 1017.90 1017.95 1018.02 1018.14 1018.31 1018.55 1018.86 1019.23 1019.63 1020.03 1020.39 1020.69 1020.90 1021.03 1021.08 1021.07 1021.02 1020.97 1020.93 1020.93 1020.97 1021.04 1021.13 1021.22 1021.30 1021.34
1019.85 1019.50 1019.18 1018.91 1018.68 1018.51 1018.40 1018.32 1018.28 1018.25 1018.22 1018.19 1018.15 1018.12 1018.11 1018.15 1018.24 1018.39 1018.62 1018.89 1019.20 1019.52 1019.81 1020.05 1020.23 1020.34 1020.38 1020.38 1020.36 1020.33 1020.33 1020.36 1020.43 1020.52 1020.62 1020.72 1020.80 1020.85
1020.46 1020.15 1019.86 1019.61 1019.40 1019.24 1019.11 1019.01 1018.93 1018.85 1018.77 1018.67 1018.56 1018.45 1018.36 1018.31 1018.30 1018.36 1018.47 1018.63 1018.83 1019.05 1019.25 1019.42 1019.54 1019.62 1019.66 1019.67 1019.67 1019.69 1019.72 1019.79 1019.89 1020.01 1020.14 1020.25 1020.33 1020.36
1020.89 1020.63 1020.40 1020.19 1020.02 1019.88 1019.76 1019.66 1019.57 1019.46 1019.34 1019.20 1019.04 1018.88 1018.72 1018.58 1018.48 1018.43 1018.44 1018.49 1018.57 1018.68 1018.78 1018.87 1018.94 1018.98 1019.01 1019.02 1019.05 1019.09 1019.16 1019.27 1019.39 1019.53 1019.65 1019.76 1019.82 1019.83
1021.16 1020.95 1020.77 1020.62 1020.49 1020.38 1020.30 1020.21 1020.12 1020.01 1019.88 1019.71 1019.52 1019.32 1019.11 1018.92 1018.75 1018.62 1018.53 1018.48 1018.47 1018.48 1018.50 1018.51 1018.53 1018.53 1018.54 1018.55 1018.57 1018.63 1018.71 1018.81 1018.93 1019.05 1019.15 1019.22 1019.24 1019.20
1021.29 1021.13 1020.99 1020.88 1020.80 1020.73 1020.66 1020.60 1020.52 1020.42 1020.29 1020.12 1019.93 1019.71 1019.48 1019.26 1019.06 1018.88 1018.74 1018.63 1018.55 1018.49 1018.44 1018.41 1018.37 1018.34 1018.32 1018.30 1018.31 1018.34 1018.39 1018.45 1018.52 1018.59 1018.62 1018.61 1018.54 1018.42
1021.29 1021.16 1021.06 1020.99 1020.93 1020.89 1020.85 1020.80 1020.74 1020.65 1020.53 1020.38 1020.20 1020.00 1019.78 1019.57 1019.37 1019.18 1019.03 1018.90 1018.79 1018.70 1018.62 1018.55 1018.48 1018.42 1018.36 1018.30 1018.26 1018.23 1018.21 1018.20 1018.17 1018.13 1018.06 1017.93 1017.75 1017.50
1021.17 1021.06 1020.98 1020.92 1020.89 1020.86 1020.83 1020.80 1020.75 1020.68 1020.58 1020.46 1020.31 1020.15 1019.97 1019.79 1019.63 1019.48 1019.35 1019.24 1019.14 1019.06 1018.98 1018.90 1018.81 1018.71 1018.61 1018.50 1018.39 1018.27 1018.15 1018.02 1017.87 1017.69 1017.48 1017.21 1016.88 1016.50
1020.88 1020.78 1020.71 1020.67 1020.64 1020.62 1020.60 1020.58 1020.54 1020.49 1020.42 1020.34 1020.24 1020.12 1020.01 1019.90 1019.80 1019.71 1019.64 1019.58 1019.52 1019.47 1019.41 1019.33 1019.24 1019.11 1018.97 1018.80 1018.61 1018.40 1018.16 1017.90 1017.60 1017.27 1016.89 1016.47 1015.99 1015.47
1020.40 1020.30 1020.24 1020.19 1020.16 1020.15 1020.13 1020.12 1020.10 1020.08 1020.05 1020.01 1019.96 1019.91 1019.87 1019.84 1019.82 1019.81 1019.81 1019.81 1019.82 1019.81 1019.78 1019.73 1019.63 1019.49 1019.31 1019.09 1018.82 1018.51 1018.15 1017.76 1017.32 1016.84 1016.32 1015.75 1015.14 1014.49
1019.70 1019.59 1019.51 1019.47 1019.43 1019.42 1019.42 1019.42 1019.43 1019.44 1019.45 1019.46 1019.48 1019.51 1019.54 1019.59 1019.65 1019.72 1019.80 1019.87 1019.94 1019.98 1019.98 1019.95 1019.86 1019.71 1019.50 1019.23 1018.90 1018.50 1018.06 1017.55 1017.00 1016.40 1015.75 1015.06 1014.33 1013.57
Thickness
5451 5453 5455 5458 5460 5463 5465 5466 5467 5469 5475 5478 5478 5481 5481 5481 5482 5483 5485 5486 5487 5489 5491 5492 5494 5495 5496 5497 5498 5499 5500 5501 5501 5502 5503 5504 5505 5507
5438 5440 5442 5445 5446 5449 5451 5453 5454 5456 5461 5467 5466 5467 5468 5469 5470 5471 5473 5474 5476 5477 5479 5480 5482 5483 5484 5485 5486 5487 5487 5488 5489 5490 5490 5492 5493 5494
5426 5427 5429 5431 5433 5436 5438 5439 5440 5442 5446 5452 5452 5453 5454 5455 5457 5458 5460 5461 5463 5465 5466 5468 5469 5470 5471 5472 5473 5474 5475 5475 5476 5477 5477 5478 5480 5482
5413 5415 5417 5418 5420 5423 5425 5427 5428 5429 5431 5436 5438 5439 5440 5442 5444 5445 5446 5448 5450 5451 5453 5454 5456 5457 5458 5459 5460 5461 5462 5462 5463 5464 5465 5466 5468 5469
5400 5402 5404 5406 5408 5411 5412 5414 5416 5417 5419 5421 5425 5425 5426 5427 5429 5431 5432 5434 5435 5437 5439 5441 5442 5444 5445 5446 5447 5448 5449 5450 5451 5452 5452 5454 5455 5456
5387 5390 5392 5394 5396 5397 5399 5402 5403 5404 5405 5407 5410 5412 5413 5414 5414 5416 5417 5419 5421 5423 5424 5426 5428 5430 5431 5432 5433 5434 5435 5436 5438 5439 5440 5441 5442 5444
5373 5376 5379 5381 5383 5385 5387 5389 5390 5391 5392 5394 5397 5398 5399 5399 5401 5402 5403 5405 5407 5408 5410 5412 5413 5415 5416 5417 5419 5420 5421 5423 5424 5426 5427 5428 5429 5431
5359 5362 5365 5368 5370 5373 5375 5377 5378 5379 5381 5382 5384 5386 5388 5388 5388 5388 5389 5389 5393 5396 5395 5398 5398 5400 5402 5403 5405 5407 5408 5409 5411 5412 5413 5415 5417 5419
5345 5347 5350 5354 5357 5358 5361 5364 5366 5368 5370 5370 5372 5375 5375 5376 5375 5375 5375 5376 5380 5382 5379 5383 5384 5386 5388 5390 5391 5393 5394 5396 5397 5398 5399 5401 5404 5406
5331 5333 5336 5339 5342 5344 5346 5349 5352 5354 5356 5358 5361 5363 5362 5362 5362 5364 5363 5363 5365 5366 5365 5367 5370 5372 5374 5376 5377 5379 5381 5382 5383 5384 5386 5387 5389 5391
5316 5319 5321 5324 5328 5331 5332 5335 5338 5340 5342 5344 5347 5348 5349 5350 5349 5348 5348 5348 5351 5352 5351 5352 5356 5356 5359 5362 5364 5365 5367 5368 5369 5371 5372 5373 5375 5376
5301 5304 5307 5310 5313 5315 5317 5320 5323 5326 5327 5329 5331 5333 5334 5335 5335 5335 5335 5335 5336 5338 5338 5337 5339 5339 5343 5348 5350 5351 5352 5354 5355 5357 5358 5359 5360 5361
5285 5289 5293 5296 5299 5301 5303 5306 5310 5312 5312 5314 5316 5318 5319 5320 5321 5321 5321 5321 5322 5324 5325 5323 5324 5324 5325 5331 5334 5336 5337 5339 5341 5343 5345 5346 5346 5347
5272 5275 5278 5281 5283 5286 5289 5293 5295 5296 5297 5299 5301 5303 5304 5305 5306 5306 5306 5307 5308 5311 5311 5309 5310 5310 5310 5313 5317 5321 5323 5325 5327 5329 5330 5332 5333 5334
5259 5262 5265 5267 5269 5272 5275 5278 5280 5281 5282 5284 5287 5289 5290 5291 5291 5290 5290 5291 5292 5294 5296 5296 5297 5297 5297 5299 5303 5305 5307 5310 5312 5315 5316 5318 5319 5321
5245 5249 5251 5253 5255 5258 5261 5262 5264 5266 5268 5270 5272 5274 5274 5275 5275 5275 5276 5276 5276 5279 5280 5281 5282 5283 5284 5286 5288 5291 5292 5295 5298 5299 5301 5303 5305 5307
5233 5235 5236 5238 5241 5243 5246 5248 5250 5251 5253 5255 5256 5257 5259 5260 5261 5261 5261 5261 5262 5264 5265 5266 5266 5267 5268 5270 5273 5277 5279 5281 5283 5284 5285 5289 5292 5294
5220 5222 5223 5225 5227 5230 5232 5234 5236 5238 5239 5240 5241 5242 5244 5245 5246 5246 5247 5247 5249 5251 5252 5252 5251 5251 5252 5255 5259 5263 5265 5267 5268 5269 5270 5273 5279 5282
5206 5207 5209 5211 5214 5216 5218 5220 5222 5223 5224 5225 5227 5228 5229 5230 5231 5232 5233 5234 5235 5237 5238 5237 5237 5237 5239 5244 5249 5249 5251 5252 5252 5253 5256 5258 5264 5269
5193 5194 5196 5198 5200 5202 5205 5206 5208 5209 5210 5211 5212 5214 5215 5216 5217 5219 5220 5220 5222 5223 5223 5224 5225 5226 5228 5231 5233 5235 5236 5237 5237 5240 5242 5245 5249 5253
5180 5182 5184 5186 5188 5190 5192 5193 5195 5196 5197 5198 5199 5201 5202 5203 5205 5206 5207 5209 5209 5210 5211 5213 5214 5214 5213 5213 5216 5221 5223 5224 5225 5226 5228 5229 5233 5238
5169 5170 5172 5174 5176 5178 5179 5180 5182 5183 5184 5186 5187 5189 5191 5192 5194 5195 5195 5196 5197 5198 5199 5200 5200 5199 5199 5201 5204 5208 5210 5211 5213 5214 5217 5219 5219 5225
5158 5160 5161 5163 5164 5165 5167 5169 5170 5172 5173 5175 5177 5178 5180 5181 5183 5184 5185 5185 5186 5186 5186 5186 5187 5187 5188 5189 5191 5193 5195 5198 5200 5203 5207 5209 5211 5215